| time (UTC) | temp C | wind direction | speed KPH | gust KPH | rain 1hr cm | rain 24hr cm | rain mn cm | humidity % | barometer mb |
| 20260504050705 | 13 | 174 | 9.7 | 9.7 | 0.00 | 0.00 | 0.00 | 46 | 1003.3 |
| 20260504044705 | 13 | 171 | 9.7 | 9.7 | 0.00 | 0.00 | 0.00 | 46 | 1003.8 |
| 20260504042705 | 13 | 177 | 8.0 | 8.0 | 0.00 | 0.00 | 0.00 | 45 | 1004.4 |
| 20260504040705 | 14 | 181 | 8.0 | 8.0 | 0.00 | 0.00 | 0.00 | 43 | 1004.7 |
| 20260504034705 | 14 | 187 | 8.0 | 8.0 | 0.00 | 0.00 | 0.00 | 42 | 1005.2 |
| 20260504032706 | 14 | 185 | 6.4 | 6.4 | 0.00 | 0.00 | 0.00 | 40 | 1005.6 |
| 20260504030706 | 15 | 177 | 4.8 | 4.8 | 0.00 | 0.00 | 0.00 | 39 | 1006.1 |
| 20260504024706 | 15 | 187 | 4.8 | 4.8 | 0.00 | 0.00 | 0.00 | 37 | 1006.2 |
| 20260504022706 | 16 | 197 | 6.4 | 6.4 | 0.00 | 0.00 | 0.00 | 37 | 1006.2 |
| 20260504020706 | 16 | 207 | 4.8 | 4.8 | 0.00 | 0.00 | 0.00 | 36 | 1006.3 |
| 20260504014706 | 17 | 213 | 6.4 | 6.4 | 0.00 | 0.00 | 0.00 | 35 | 1006.3 |
| 20260504012706 | 18 | 226 | 8.0 | 8.0 | 0.00 | 0.00 | 0.00 | 34 | 1006.2 |
| 20260504010706 | 19 | 240 | 9.7 | 9.7 | 0.00 | 0.00 | 0.00 | 33 | 1005.9 |
| 20260504004706 | 19 | 236 | 9.7 | 9.7 | 0.00 | 0.00 | 0.00 | 31 | 1006.1 |
| 20260504002706 | 21 | 235 | 9.7 | 9.7 | 0.00 | 0.00 | 0.00 | 29 | 1006.1 |
| 20260504000706 | 21 | 246 | 11.3 | 11.3 | 0.00 | 0.00 | 0.00 | 29 | 1006.2 |
| 20260503234706 | 20 | 234 | 11.3 | 11.3 | 0.00 | 0.00 | 0.00 | 30 | 1006.5 |
| 20260503232706 | 21 | 243 | 9.7 | 9.7 | 0.00 | 0.00 | 0.00 | 28 | 1006.5 |
| 20260503230706 | 21 | 234 | 11.3 | 11.3 | 0.00 | 0.00 | 0.00 | 27 | 1006.5 |
| 20260503224706 | 21 | 251 | 8.0 | 8.0 | 0.00 | 0.00 | 0.00 | 28 | 1006.5 |
| 20260503222706 | 21 | 232 | 9.7 | 9.7 | 0.00 | 0.00 | 0.00 | 28 | 1006.7 |
| 20260503220706 | 21 | 317 | 8.0 | 8.0 | 0.00 | 0.00 | 0.00 | 27 | 1006.8 |
| 20260503214706 | 21 | 234 | 9.7 | 9.7 | 0.00 | 0.00 | 0.00 | 27 | 1007.0 |
| 20260503212706 | 21 | 293 | 6.4 | 6.4 | 0.00 | 0.00 | 0.00 | 27 | 1007.3 |
| 20260503210705 | 21 | 315 | 6.4 | 6.4 | 0.00 | 0.00 | 0.00 | 28 | 1007.6 |
| 20260503204705 | 20 | 341 | 12.9 | 12.9 | 0.00 | 0.00 | 0.00 | 27 | 1007.8 |
| 20260503202706 | 20 | 346 | 11.3 | 11.3 | 0.00 | 0.00 | 0.00 | 28 | 1008.0 |
| 20260503200705 | 20 | 356 | 12.9 | 12.9 | 0.00 | 0.00 | 0.00 | 26 | 1008.2 |
| 20260503194705 | 20 | 339 | 11.3 | 11.3 | 0.00 | 0.00 | 0.00 | 26 | 1008.5 |
| 20260503192705 | 20 | 359 | 11.3 | 11.3 | 0.00 | 0.00 | 0.00 | 24 | 1008.7 |
| 20260503190705 | 19 | 354 | 11.3 | 11.3 | 0.00 | 0.00 | 0.00 | 23 | 1009.0 |
| 20260503184705 | 19 | 320 | 8.0 | 8.0 | 0.00 | 0.00 | 0.00 | 25 | 1009.0 |
| 20260503182705 | 19 | 297 | 11.3 | 11.3 | 0.00 | 0.00 | 0.00 | 28 | 1009.1 |
| 20260503180705 | 19 | 277 | 11.3 | 11.3 | 0.00 | 0.00 | 0.00 | 31 | 1009.4 |
| 20260503174705 | 18 | 356 | 12.9 | 12.9 | 0.00 | 0.00 | 0.00 | 30 | 1009.6 |
| 20260503172705 | 18 | 303 | 11.3 | 11.3 | 0.00 | 0.00 | 0.00 | 32 | 1009.4 |
| 20260503170705 | 18 | 344 | 11.3 | 11.3 | 0.00 | 0.00 | 0.00 | 42 | 1009.6 |
| 20260503150705 | 16 | 351 | 8.0 | 8.0 | 0.00 | 0.00 | 0.00 | 54 | 1009.4 |
| 20260503130705 | 11 | 274 | 4.8 | 4.8 | 0.00 | 0.00 | 0.00 | 73 | 1009.4 |
| 20260503110705 | 7 | 0.0 | 0.0 | 0.00 | 0.00 | 0.00 | 81 | 1008.8 | |
| 20260503080705 | 10 | 0.0 | 0.0 | 0.00 | 0.00 | 0.00 | 72 | 1009.4 | |
| 20260503072705 | 10 | 51 | 1.6 | 1.6 | 0.00 | 0.00 | 0.00 | 67 | 1009.6 |
| 20260503070705 | 11 | 0.0 | 0.0 | 0.00 | 0.00 | 0.00 | 65 | 1009.7 |